Location: São Paulo
(23.5507°S, 46.6334°W)
Time: 17:48:42
(UTC-03:00)

Tiros 1 - Pass Details

Date: 17 February 2026
Orbit: 618 x 649 km, 48.4° (Epoch: 8 March)

Event Time Altitude Azimuth Distance (km) Brightness Sun altitude
Rises 02:54:05 0° 208° (SSW) 2,982 - -38.3°
Reaches altitude 10° 02:57:05 10° 189° (S) 2,067 - -37.8°
Maximum altitude 03:00:25 19° 145° (SE) 1,569 - -37.2°
Exits shadow 03:01:01 18° 135° (SE) 1,585 9.7 -37.1°
Drops below altitude 10° 03:03:44 10° 100° (E) 2,051 10.3 -36.6°
Sets 03:06:41 0° 81° (E) 2,952 11.1 -36.0°
